Terminal Aerodrome Forecast
Issued by NWS

Current Version | Previous Version | Text Only | Print | Product List | Glossary On
Versions: 1 2 3 4 5 6 7 8 9 10 11 12 13 14 15 16 17 18 19 20 21 22 23 24 25 26 27 28 29 30 31 32 33 34 35 36 37 38 39 40 41 42 43 44 45 46 47 48 49 50
000
FTUS41 KCTP 251740
TAFJST
TAF
KJST 251740Z 2518/2618 15006KT 4SM -RA VCSH BKN011 OVC020
     FM251900 21006KT P6SM VCSH BKN023 BKN045
     FM252100 24006KT P6SM VCTS SCT020CB BKN045
     FM260400 27008KT P6SM VCSH BKN008 OVC015=

USA.gov is the U.S. government's official web portal to all federal, state and local government web resources and services.